• In Hungary
  • List of Countries
  • For 7 days
  • Water Temperature
  • Satellite Maps
  • Weather Map
  • News
  • Weather Widgets
  • user-avatar
    Login

    Hourly Weather SanFrancisco

    Today, 23 October, Monday

    Time Temperature Precipitation Wind Pressure Humidity
    00:00 +20°C° 0 mm 2 mps 681 mmHg 92%
    01:00 +20°C° 0 mm 2 mps 681 mmHg 92%
    02:00 +19°C° 0 mm 2 mps 681 mmHg 92%
    03:00 +20°C° 0 mm 1 mps 681 mmHg 92%
    04:00 +20°C° 0 mm 1 mps 681 mmHg 92%
    05:00 +20°C° 0 mm 1 mps 681 mmHg 92%
    06:00 +21°C° 0 mm 1 mps 681 mmHg 88%
    07:00 +22°C° 0 mm 1 mps 682 mmHg 84%
    08:00 +23°C° 0 mm 1 mps 682 mmHg 80%
    09:00 +25°C° 0 mm 1 mps 683 mmHg 74%
    10:00 +26°C° 0 mm 2 mps 683 mmHg 67%
    11:00 +28°C° 0 mm 2 mps 684 mmHg 60%
    12:00 +28°C° 0.4 mm 2 mps 683 mmHg 61%
    13:00 +28°C° 0.4 mm 2 mps 682 mmHg 63%
    14:00 +29°C° 0.4 mm 2 mps 681 mmHg 64%
    15:00 +28°C° 0.8 mm 2 mps 681 mmHg 68%
    16:00 +27°C° 0.8 mm 2 mps 681 mmHg 71%
    17:00 +27°C° 0.8 mm 2 mps 680 mmHg 74%
    18:00 +25°C° 0.1 mm 1 mps 680 mmHg 79%
    19:00 +24°C° 0.1 mm 1 mps 680 mmHg 85%
    20:00 +22°C° 0.1 mm 1 mps 680 mmHg 90%
    21:00 +22°C° 0.1 mm 1 mps 680 mmHg 91%
    22:00 +21°C° 0.1 mm 1 mps 681 mmHg 93%
    23:00 +20°C° 0.1 mm 2 mps 681 mmHg 94%

    Tomorrow, 24 October, Tuesday

    Time Temperature Precipitation Wind Pressure Humidity
    00:00 +21°C° 0.1 mm 1 mps 681 mmHg 94%
    01:00 +21°C° 0.1 mm 1 mps 680 mmHg 94%
    02:00 +20°C° 0.1 mm 1 mps 680 mmHg 95%
    03:00 +20°C° 0 mm 1 mps 680 mmHg 94%
    04:00 +20°C° 0 mm 1 mps 680 mmHg 94%
    05:00 +20°C° 0 mm 1 mps 679 mmHg 93%
    06:00 +21°C° 0 mm 1 mps 680 mmHg 89%
    07:00 +22°C° 0 mm 1 mps 681 mmHg 85%
    08:00 +23°C° 0 mm 1 mps 682 mmHg 81%
    09:00 +25°C° 0 mm 1 mps 682 mmHg 74%
    10:00 +27°C° 0 mm 1 mps 683 mmHg 66%
    11:00 +29°C° 0 mm 2 mps 683 mmHg 59%
    12:00 +29°C° 0.3 mm 2 mps 682 mmHg 60%
    13:00 +29°C° 0.3 mm 2 mps 681 mmHg 60%
    14:00 +29°C° 0.3 mm 2 mps 680 mmHg 60%
    15:00 +29°C° 0.7 mm 2 mps 680 mmHg 65%
    16:00 +28°C° 0.7 mm 2 mps 680 mmHg 69%
    17:00 +27°C° 0.7 mm 1 mps 679 mmHg 74%
    18:00 +25°C° 0.4 mm 1 mps 679 mmHg 79%
    19:00 +24°C° 0.4 mm 1 mps 679 mmHg 84%
    20:00 +22°C° 0.4 mm 1 mps 680 mmHg 90%
    21:00 +22°C° 0.7 mm 1 mps 680 mmHg 91%
    22:00 +21°C° 0.7 mm 1 mps 681 mmHg 93%
    23:00 +21°C° 0.7 mm 1 mps 681 mmHg 95%

    Day after tomorrow, 25 October, Wednesday

    Time Temperature Precipitation Wind Pressure Humidity
    00:00 +21°C° 0.2 mm 1 mps 681 mmHg 94%
    01:00 +21°C° 0.2 mm 1 mps 680 mmHg 94%
    02:00 +21°C° 0.2 mm 1 mps 680 mmHg 94%
    03:00 +20°C° 0.1 mm 1 mps 680 mmHg 93%
    04:00 +20°C° 0.1 mm 1 mps 680 mmHg 92%
    05:00 +20°C° 0.1 mm 1 mps 680 mmHg 92%
    06:00 +21°C° 0.3 mm 1 mps 680 mmHg 89%
    07:00 +22°C° 0.3 mm 1 mps 681 mmHg 86%
    08:00 +23°C° 0.3 mm 1 mps 682 mmHg 83%
    09:00 +25°C° 0 mm 1 mps 682 mmHg 76%
    10:00 +27°C° 0 mm 1 mps 683 mmHg 70%
    11:00 +28°C° 0 mm 2 mps 683 mmHg 64%
    12:00 +28°C° 1.4 mm 2 mps 682 mmHg 70%
    13:00 +27°C° 1.4 mm 2 mps 681 mmHg 77%
    14:00 +27°C° 1.4 mm 2 mps 680 mmHg 83%
    15:00 +26°C° 1.8 mm 1 mps 680 mmHg 84%
    16:00 +26°C° 1.8 mm 1 mps 680 mmHg 86%
    17:00 +25°C° 1.8 mm 1 mps 679 mmHg 87%
    18:00 +24°C° 0.3 mm 1 mps 680 mmHg 89%
    19:00 +23°C° 0.3 mm 1 mps 680 mmHg 91%
    20:00 +22°C° 0.3 mm 1 mps 680 mmHg 93%
    21:00 +22°C° 0 mm 1 mps 681 mmHg 93%
    22:00 +21°C° 0 mm 1 mps 681 mmHg 92%
    23:00 +21°C° 0 mm 1 mps 681 mmHg 92%

    26 October, Thursday

    Time Temperature Precipitation Wind Pressure Humidity
    00:00 +21°C° 0.1 mm 1 mps 681 mmHg 92%
    01:00 +21°C° 0.1 mm 1 mps 680 mmHg 92%
    02:00 +20°C° 0.1 mm 1 mps 680 mmHg 92%
    03:00 +20°C° 0.3 mm 1 mps 680 mmHg 92%
    04:00 +20°C° 0.3 mm 1 mps 680 mmHg 92%
    05:00 +20°C° 0.3 mm 1 mps 680 mmHg 93%
    06:00 +21°C° 0.2 mm 1 mps 681 mmHg 90%
    07:00 +22°C° 0.2 mm 1 mps 682 mmHg 87%
    08:00 +23°C° 0.2 mm 1 mps 682 mmHg 84%
    09:00 +25°C° 0.1 mm 1 mps 683 mmHg 77%
    10:00 +27°C° 0.1 mm 1 mps 683 mmHg 70%
    11:00 +29°C° 0.1 mm 1 mps 683 mmHg 62%
    12:00 +28°C° 1 mm 1 mps 683 mmHg 68%
    13:00 +28°C° 1 mm 1 mps 682 mmHg 74%
    14:00 +27°C° 1 mm 1 mps 681 mmHg 80%
    15:00 +27°C° 1.7 mm 1 mps 681 mmHg 82%
    16:00 +26°C° 1.7 mm 1 mps 680 mmHg 84%
    17:00 +23°C° 1.7 mm 0 mps 680 mmHg 86%
    18:00 +24°C° 0.3 mm 1 mps 680 mmHg 89%
    19:00 +23°C° 0.3 mm 1 mps 680 mmHg 91%
    20:00 +22°C° 0.3 mm 1 mps 681 mmHg 94%
    21:00 +22°C° 0 mm 1 mps 681 mmHg 94%
    22:00 +21°C° 0 mm 1 mps 681 mmHg 95%
    23:00 +21°C° 0 mm 1 mps 681 mmHg 95%

    27 October, Friday

    Time Temperature Precipitation Wind Pressure Humidity
    00:00 +21°C° 0 mm 1 mps 681 mmHg 96%
    01:00 +21°C° 0 mm 1 mps 680 mmHg 96%
    02:00 +20°C° 0 mm 1 mps 680 mmHg 96%
    03:00 +20°C° 0 mm 1 mps 680 mmHg 96%
    04:00 +20°C° 0 mm 1 mps 680 mmHg 96%
    05:00 +20°C° 0 mm 1 mps 680 mmHg 96%
    06:00 +21°C° 0 mm 1 mps 681 mmHg 93%
    07:00 +22°C° 0 mm 1 mps 681 mmHg 91%
    08:00 +23°C° 0 mm 1 mps 682 mmHg 89%
    09:00 +25°C° 0 mm 1 mps 682 mmHg 79%
    10:00 +27°C° 0 mm 1 mps 683 mmHg 70%
    11:00 +29°C° 0 mm 1 mps 683 mmHg 60%
    12:00 +29°C° 0.5 mm 1 mps 682 mmHg 63%
    13:00 +28°C° 0.5 mm 1 mps 681 mmHg 65%
    14:00 +28°C° 0.5 mm 1 mps 681 mmHg 68%
    15:00 +27°C° 1.5 mm 1 mps 680 mmHg 73%
    16:00 +26°C° 1.5 mm 1 mps 680 mmHg 79%
    17:00 +26°C° 1.5 mm 1 mps 680 mmHg 84%
    18:00 +24°C° 0.5 mm 1 mps 680 mmHg 87%
    19:00 +23°C° 0.5 mm 1 mps 680 mmHg 90%
    20:00 +22°C° 0.5 mm 1 mps 681 mmHg 92%
    21:00 +22°C° 0 mm 1 mps 681 mmHg 93%
    22:00 +21°C° 0 mm 1 mps 681 mmHg 94%
    23:00 +21°C° 0 mm 1 mps 681 mmHg 95%

    28 October, Saturday

    Time Temperature Precipitation Wind Pressure Humidity
    00:00 +21°C° 0 mm 1 mps 680 mmHg 95%
    01:00 +21°C° 0 mm 1 mps 680 mmHg 95%
    02:00 +21°C° 0 mm 1 mps 680 mmHg 95%
    03:00 +21°C° 0 mm 1 mps 680 mmHg 95%
    04:00 +21°C° 0 mm 1 mps 680 mmHg 96%
    05:00 +21°C° 0 mm 1 mps 680 mmHg 96%
    06:00 +21°C° 0 mm 1 mps 681 mmHg 93%
    07:00 +22°C° 0 mm 1 mps 681 mmHg 91%
    08:00 +23°C° 0 mm 1 mps 682 mmHg 88%
    09:00 +25°C° 0 mm 1 mps 682 mmHg 80%
    10:00 +27°C° 0 mm 1 mps 683 mmHg 72%
    11:00 +28°C° 0 mm 1 mps 683 mmHg 64%
    12:00 +28°C° 0.4 mm 1 mps 682 mmHg 65%
    13:00 +28°C° 0.4 mm 1 mps 681 mmHg 66%
    14:00 +28°C° 0.4 mm 1 mps 681 mmHg 67%
    15:00 +27°C° 1 mm 1 mps 680 mmHg 73%
    16:00 +26°C° 1 mm 1 mps 680 mmHg 80%
    17:00 +25°C° 1 mm 1 mps 679 mmHg 87%
    18:00 +24°C° 0.3 mm 1 mps 680 mmHg 89%
    19:00 +23°C° 0.3 mm 1 mps 680 mmHg 92%
    20:00 +22°C° 0.3 mm 1 mps 680 mmHg 95%
    21:00 +21°C° 0 mm 1 mps 680 mmHg 95%
    22:00 +21°C° 0 mm 1 mps 680 mmHg 95%
    23:00 +21°C° 0 mm 1 mps 680 mmHg 95%
    Show more